• In Moldova, Republic
  • List of Countries
  • For 7 days
  • Water Temperature
  • Satellite Maps
  • Weather Map
  • Weather Widgets
  • user-avatar
    Login

    Hourly Weather Stepanakert

    Today, 28 March, Tuesday

    Time Temperature Precipitation Wind Pressure Humidity
    00:00 +7°C° 0 mm 2 mps 688 mmHg 61%
    01:00 +7°C° 0 mm 2 mps 688 mmHg 64%
    02:00 +7°C° 0 mm 2 mps 687 mmHg 66%
    03:00 +7°C° 0 mm 1 mps 687 mmHg 68%
    04:00 +7°C° 0 mm 1 mps 687 mmHg 69%
    05:00 +6°C° 0 mm 2 mps 688 mmHg 70%
    06:00 +5°C° 0 mm 2 mps 688 mmHg 71%
    07:00 +7°C° 0 mm 2 mps 689 mmHg 65%
    08:00 +9°C° 0 mm 3 mps 689 mmHg 60%
    09:00 +11°C° 0 mm 4 mps 690 mmHg 54%
    10:00 +11°C° 0.1 mm 4 mps 690 mmHg 53%
    11:00 +12°C° 0.1 mm 5 mps 690 mmHg 52%
    12:00 +12°C° 0.1 mm 5 mps 690 mmHg 51%
    13:00 +12°C° 0.2 mm 5 mps 690 mmHg 53%
    14:00 +11°C° 0.2 mm 4 mps 690 mmHg 54%
    15:00 +11°C° 0.2 mm 4 mps 690 mmHg 56%
    16:00 +10°C° 0.2 mm 3 mps 690 mmHg 60%
    17:00 +9°C° 0.2 mm 2 mps 690 mmHg 64%
    18:00 +8°C° 0.2 mm 2 mps 691 mmHg 68%
    19:00 +8°C° 0 mm 1 mps 691 mmHg 70%
    20:00 +7°C° 0 mm 1 mps 692 mmHg 73%
    21:00 +6°C° 0 mm 1 mps 692 mmHg 75%
    22:00 +6°C° 0 mm 1 mps 692 mmHg 76%
    23:00 +5°C° 0 mm 1 mps 692 mmHg 77%

    Tomorrow, 29 March, Wednesday

    Time Temperature Precipitation Wind Pressure Humidity
    00:00 +4°C° 0 mm 1 mps 691 mmHg 78%
    01:00 +4°C° 0 mm 1 mps 691 mmHg 78%
    02:00 +4°C° 0 mm 1 mps 691 mmHg 78%
    03:00 +4°C° 0 mm 1 mps 691 mmHg 78%
    04:00 +4°C° 0 mm 1 mps 691 mmHg 78%
    05:00 +3°C° 0 mm 2 mps 691 mmHg 77%
    06:00 +2°C° 0 mm 2 mps 691 mmHg 76%
    07:00 +5°C° 0 mm 2 mps 692 mmHg 67%
    08:00 +8°C° 0 mm 2 mps 692 mmHg 57%
    09:00 +10°C° 0 mm 2 mps 693 mmHg 48%
    10:00 +13°C° 0 mm 2 mps 693 mmHg 44%
    11:00 +13°C° 0 mm 3 mps 693 mmHg 41%
    12:00 +14°C° 0 mm 3 mps 693 mmHg 38%
    13:00 +14°C° 0 mm 3 mps 693 mmHg 38%
    14:00 +14°C° 0 mm 3 mps 693 mmHg 37%
    15:00 +16°C° 0 mm 3 mps 693 mmHg 37%
    16:00 +14°C° 0 mm 2 mps 693 mmHg 44%
    17:00 +12°C° 0 mm 2 mps 693 mmHg 51%
    18:00 +10°C° 0 mm 1 mps 693 mmHg 59%
    19:00 +9°C° 0 mm 1 mps 693 mmHg 63%
    20:00 +7°C° 0 mm 1 mps 694 mmHg 67%
    21:00 +6°C° 0 mm 1 mps 695 mmHg 72%
    22:00 +6°C° 0 mm 1 mps 695 mmHg 75%
    23:00 +5°C° 0 mm 1 mps 695 mmHg 78%

    Day after tomorrow, 30 March, Thursday

    Time Temperature Precipitation Wind Pressure Humidity
    00:00 +4°C° 0 mm 1 mps 695 mmHg 81%
    01:00 +4°C° 0 mm 1 mps 695 mmHg 83%
    02:00 +4°C° 0 mm 1 mps 695 mmHg 85%
    03:00 +3°C° 0 mm 1 mps 695 mmHg 88%
    04:00 +3°C° 0 mm 1 mps 696 mmHg 88%
    05:00 +3°C° 0 mm 1 mps 696 mmHg 88%
    06:00 +3°C° 0 mm 1 mps 696 mmHg 88%
    07:00 +5°C° 0 mm 1 mps 696 mmHg 79%
    08:00 +7°C° 0 mm 1 mps 697 mmHg 69%
    09:00 +9°C° 0 mm 2 mps 697 mmHg 60%
    10:00 +10°C° 0 mm 2 mps 697 mmHg 57%
    11:00 +12°C° 0 mm 2 mps 696 mmHg 54%
    12:00 +13°C° 0 mm 2 mps 696 mmHg 50%
    13:00 +13°C° 0 mm 2 mps 695 mmHg 51%
    14:00 +14°C° 0 mm 2 mps 695 mmHg 51%
    15:00 +14°C° 0 mm 2 mps 694 mmHg 52%
    16:00 +12°C° 0 mm 2 mps 694 mmHg 60%
    17:00 +11°C° 0 mm 1 mps 693 mmHg 68%
    18:00 +9°C° 0 mm 1 mps 693 mmHg 77%
    19:00 +8°C° 0 mm 1 mps 693 mmHg 79%
    20:00 +7°C° 0 mm 1 mps 693 mmHg 80%
    21:00 +6°C° 0 mm 1 mps 693 mmHg 82%
    22:00 +6°C° 0 mm 1 mps 693 mmHg 80%
    23:00 +6°C° 0 mm 1 mps 693 mmHg 78%

    31 March, Friday

    Time Temperature Precipitation Wind Pressure Humidity
    00:00 +6°C° 0 mm 1 mps 693 mmHg 75%
    01:00 +5°C° 0 mm 2 mps 692 mmHg 73%
    02:00 +5°C° 0 mm 2 mps 692 mmHg 70%
    03:00 +5°C° 0 mm 2 mps 692 mmHg 68%
    04:00 +5°C° 0 mm 2 mps 692 mmHg 65%
    05:00 +5°C° 0 mm 2 mps 692 mmHg 63%
    06:00 +5°C° 0 mm 2 mps 692 mmHg 60%
    07:00 +8°C° 0 mm 2 mps 693 mmHg 52%
    08:00 +12°C° 0 mm 2 mps 693 mmHg 45%
    09:00 +15°C° 0 mm 1 mps 694 mmHg 37%
    10:00 +15°C° 0 mm 2 mps 694 mmHg 36%
    11:00 +16°C° 0 mm 2 mps 694 mmHg 35%
    12:00 +17°C° 0 mm 3 mps 694 mmHg 34%
    13:00 +17°C° 0 mm 3 mps 693 mmHg 35%
    14:00 +17°C° 0 mm 3 mps 693 mmHg 36%
    15:00 +17°C° 0 mm 3 mps 693 mmHg 37%
    16:00 +16°C° 0 mm 2 mps 693 mmHg 44%
    17:00 +14°C° 0 mm 2 mps 693 mmHg 51%
    18:00 +12°C° 0 mm 2 mps 693 mmHg 58%
    19:00 +10°C° 0 mm 2 mps 694 mmHg 63%
    20:00 +9°C° 0 mm 3 mps 694 mmHg 68%
    21:00 +8°C° 0 mm 3 mps 695 mmHg 72%
    22:00 +7°C° 0.3 mm 3 mps 695 mmHg 76%
    23:00 +7°C° 0.3 mm 3 mps 695 mmHg 80%

    1 April, Saturday

    Time Temperature Precipitation Wind Pressure Humidity
    00:00 +5°C° 0.3 mm 3 mps 695 mmHg 84%
    01:00 +5°C° 0.5 mm 3 mps 694 mmHg 86%
    02:00 +4°C° 0.5 mm 3 mps 694 mmHg 89%
    03:00 +4°C° 0.5 mm 4 mps 694 mmHg 91%
    04:00 +3°C° 0.2 mm 3 mps 694 mmHg 90%
    05:00 +3°C° 0.2 mm 3 mps 694 mmHg 90%
    06:00 +3°C° 0.2 mm 3 mps 694 mmHg 90%
    07:00 +3°C° 0.2 mm 3 mps 694 mmHg 87%
    08:00 +3°C° 0.2 mm 3 mps 694 mmHg 84%
    09:00 +3°C° 0.2 mm 3 mps 695 mmHg 82%
    10:00 +4°C° 0.3 mm 3 mps 694 mmHg 80%
    11:00 +4°C° 0.3 mm 3 mps 694 mmHg 77%
    12:00 +5°C° 0.3 mm 3 mps 694 mmHg 75%
    13:00 +6°C° 0.2 mm 2 mps 693 mmHg 74%
    14:00 +6°C° 0.2 mm 2 mps 693 mmHg 73%
    15:00 +7°C° 0.2 mm 2 mps 693 mmHg 73%
    16:00 +6°C° 0.1 mm 2 mps 693 mmHg 76%
    17:00 +6°C° 0.1 mm 2 mps 693 mmHg 79%
    18:00 +5°C° 0.1 mm 2 mps 693 mmHg 83%
    19:00 +6°C° 0.1 mm 1 mps 693 mmHg 85%
    20:00 +5°C° 0.1 mm 1 mps 693 mmHg 86%
    21:00 +5°C° 0.1 mm 1 mps 693 mmHg 88%
    22:00 +4°C° 0.1 mm 1 mps 693 mmHg 89%
    23:00 +4°C° 0.1 mm 1 mps 693 mmHg 91%

    2 April, Sunday

    Time Temperature Precipitation Wind Pressure Humidity
    00:00 +3°C° 0.1 mm 1 mps 693 mmHg 92%
    01:00 +3°C° 0.3 mm 1 mps 693 mmHg 92%
    02:00 +3°C° 0.3 mm 1 mps 693 mmHg 91%
    03:00 +3°C° 0.3 mm 1 mps 693 mmHg 91%
    04:00 +3°C° 0.4 mm 1 mps 693 mmHg 91%
    05:00 +2°C° 0.4 mm 2 mps 694 mmHg 92%
    06:00 +2°C° 0.4 mm 2 mps 694 mmHg 92%
    07:00 +2°C° 0.8 mm 2 mps 694 mmHg 90%
    08:00 +2°C° 0.8 mm 2 mps 695 mmHg 88%
    09:00 +2°C° 0.8 mm 3 mps 695 mmHg 87%
    10:00 +2°C° 0.6 mm 3 mps 696 mmHg 84%
    11:00 +3°C° 0.6 mm 3 mps 696 mmHg 82%
    12:00 +3°C° 0.6 mm 3 mps 696 mmHg 80%
    13:00 +3°C° 0.4 mm 3 mps 697 mmHg 79%
    14:00 +4°C° 0.4 mm 3 mps 697 mmHg 78%
    15:00 +4°C° 0.4 mm 3 mps 697 mmHg 77%
    16:00 +3°C° 0.2 mm 3 mps 697 mmHg 80%
    17:00 +4°C° 0.2 mm 2 mps 698 mmHg 83%
    18:00 +3°C° 0.2 mm 2 mps 698 mmHg 85%
    19:00 +2°C° 0 mm 2 mps 698 mmHg 86%
    20:00 +1°C° 0 mm 2 mps 699 mmHg 86%
    21:00 +1°C° 0 mm 2 mps 699 mmHg 86%
    22:00 +1°C° 0 mm 1 mps 699 mmHg 85%
    23:00 +1°C° 0 mm 1 mps 699 mmHg 85%
    Show more